www.pogodaiklimat.ru

ПОГОДА в Коппер Харбор, MI

  • Прогноз погоды в Коппер Харбор
  • Монитор погоды в Коппер Харбор
  • Климат в Коппер Харбор

АРХИВ ПОГОДЫ в Коппер Харбор

Время (UTC), дата Ветер
(напр.,м/с)
 
Видим.   Явления Облачность Т
(С)
Тd
(С)
f
(%)
Тe
(С)
Тes
(С)
Комфортность

P
(гПа)

Po
(гПа)
Тmin
(С)
Tmax
(С)
R
(мм)
SD
(см)
20:51 23.06 Ю  н/о    н/о  +17.8  +10.6  63  +18  +18    1009.8  987.5         
21:51 23.06 Ю  4
{9} 
н/о    н/о  +18.9  +10.0  56  +19  +19    1009.0  986.5         
22:51 23.06     н/о    н/о  +18.9  +10.0  56  +19  +19    1008.4  986.2  +17.2  +20.6     
23:51 23.06 Ю  4
{9} 
н/о    н/о  +18.3  +9.4  56  +18  +18    1008.0  985.8         
00:51 24.06 нст  н/о    н/о  +18.3  +10.0  58  +19  +19    1007.6  985.5         
01:51 24.06   н/о    н/о  +12.2  +8.9  80  +12  +12    1007.7  985.2         
02:51 24.06 нст  н/о    н/о  +15.0  +11.1  77  +14  +14    1007.2  984.8         
03:51 24.06   н/о    н/о  +13.9  +11.7  87  +13  +13    1006.0  983.8         
04:51 24.06   н/о    н/о  +9.4  +7.8  90  +9  +9    1005.1  982.9  +9.4  +18.9  1.0   
05:51 24.06 Ю  6
{10} 
н/о    н/о  +16.7  +8.9  60  +16  +16    1003.3  981.2         
06:51 24.06 Ю  5
{10} 
н/о    н/о  +17.8  +8.3  54  +17  +17    1002.6  980.5         
07:51 24.06 Ю  6
{11} 
н/о    н/о  +16.1  +10.0  67  +15  +15    1001.6  979.5      0.3   
08:51 24.06 Ю  4
{10} 
н/о    н/о  +14.4  +10.6  78  +13  +13    1001.2  979.2         
09:51 24.06 Ю  7
{12} 
н/о    н/о  +13.9  +11.1  83  +11  +11    1000.4  978.2         
10:51 24.06 Ю  6
{13} 
н/о    н/о  +13.9  +11.1  83  +12  +12    1000.0  977.9  +9.4  +17.8  4.3   
11:51 24.06 Ю  5
{10} 
н/о    н/о  +14.4  +11.7  84  +12  +12    999.5  977.6         
12:51 24.06 ЮЗ  6
{12} 
н/о    н/о  +16.1  +13.9  87  +15  +15    999.3  977.2         
13:51 24.06 ЮЗ  н/о    н/о  +16.7  +14.4  86  +16  +16    999.4  977.2         
14:51 24.06 нст  н/о    н/о  +16.7  +14.4  86  +17  +17    999.1  977.2         
15:51 24.06 нст  н/о    н/о  +16.1  +13.9  87  +16  +16    999.4  977.2         
16:51 24.06 нст  н/о    н/о  +17.8  +15.0  84  +18  +18    998.8  976.6  +13.3  +17.8     
17:51 24.06 нст  н/о    н/о  +16.7  +14.4  86  +16  +16    998.2  976.2         
18:51 24.06   н/о    н/о  +11.7  +10.0  89  +11  +11    998.2  975.9         
19:51 24.06 В  н/о    н/о  +12.2  +10.0  86  +12  +12    997.8  975.6         
20:51 24.06 С  н/о    н/о  +9.4  +8.3  93  +7  +7    998.4  976.2         
21:51 24.06 ЮВ  н/о    н/о  +7.8  +6.7  93  +5  +5    997.9  975.6         
22:51 24.06   н/о    н/о  +7.8  +6.7  93  +7  +7    998.0  975.6  +7.2  +17.8  2.3   
23:51 24.06 С  н/о    н/о  +8.3  +7.2  93  +7  +7    998.1  975.6         
00:51 25.06   н/о    н/о  +10.0  +8.9  93  +9  +9    997.7  975.6         
01:51 25.06   н/о    н/о  +11.1  +10.6  97  +10  +10    998.1  975.9      5.1   
02:51 25.06 нст  н/о    н/о  +10.0  +8.9  93  +8  +8    997.7  975.6         
03:51 25.06 нст  н/о    н/о  +11.1  +10.6  97  +10  +10    997.6  975.6         
04:51 25.06 ЮЗ  н/о    н/о  +11.1  +10.0  93  +9  +9    997.5  975.2  +7.8  +12.2  5.3   
05:51 25.06 СЗ  4
{8} 
н/о    н/о  +14.4  +13.3  93  +13  +13    997.7  975.6         
06:51 25.06 нст  н/о    н/о  +15.0  +12.8  87  +14  +14    997.8  975.6         
07:51 25.06 СЗ  4
{10} 
н/о    н/о  +15.6  +13.3  86  +14  +14    998.0  975.9         
08:51 25.06 СЗ  4
{8} 
н/о    н/о  +16.7  +13.9  84  +16  +16    998.5  976.2         
09:51 25.06 СЗ  н/о    н/о  +16.1  +13.9  87  +15  +15    999.2  976.9         
10:51 25.06 З  6
{11} 
н/о    н/о  +16.1  +13.9  87  +15  +15    999.2  976.9  +11.1  +17.2  2.5   
11:51 25.06 СЗ  4
{9} 
н/о    н/о  +16.7  +13.9  84  +16  +16    999.7  977.2         
12:51 25.06 СЗ  н/о    н/о  +18.3  +14.4  78  +18  +18    1000.1  977.9         
13:51 25.06 СЗ  4
{10} 
н/о    н/о  +20.0  +13.9  68  +22  +22  комфорт  1000.0  977.9         
14:51 25.06 СЗ  5
{11} 
н/о    н/о  +22.8  +13.9  57  +26  +26  жарко  1000.2  978.2         
15:51 25.06 СЗ  5
{13} 
н/о    н/о  +23.3  +12.8  52  +26  +26  жарко  1000.6  978.5         
16:51 25.06 СЗ  5
{11} 
н/о    н/о  +25.0  +12.2  45  +27  +27  жарко  1000.4  978.5  +16.1  +25.0     
17:51 25.06 СЗ  5
{13} 
н/о    н/о  +25.0  +12.8  47  +27  +27  жарко  1000.4  978.5         
18:51 25.06 З  4
{11} 
н/о    н/о  +26.1  +12.8  44  +28  +28  жарко  1000.1  978.5         
19:51 25.06 СЗ  6
{13} 
н/о    н/о  +26.1  +10.6  38  +27  +27  жарко  1000.4  978.9         

 

Местоположение метеостанции Copper Harbor: широта 47.4669 долгота -87.8750 высота над уровнем моря 190 м.

В архиве по умолчанию представлена погода в Коппер Харбор за последние 1-2 суток. Обновление информации о фактической погоде в базе происходит ежечасно! Архивные данные за месяц целиком и за предыдущие месяцы Вы можете получить, выбрав интересующий диапазон дат из раскрывающегося списка и нажав кнопку "Ввод!".

Внимание! Архив погоды МЕТАР в базе сайта хранится не более 60 дней. Нет смысла пытаться выбрать более раннюю дату.

Внимание! Время в таблицах - всемирное. Для получения местного времени необходимо прибавить поправку, которая в Коппер Харбор равна -5 ч.

Ветер - указаны скорость ветра в м/с и направление, откуда дует ветер: С - северный, СВ - северо-восточный, В - восточный, ЮВ - юго-восточный, Ю - южный, ЮЗ - юго-западный, З - западный, СЗ - северо-западный.
Видимость - горизонтальная дальность видимости в метрах или километрах. При видимости от 1 до 10 км при отсутствии осадков обычно наблюдается дымка, при ухудшении видимости до 1 км и менее - туман. В сухую погоду видимость может ухудшаться дымом, пылью или мглою.
Атмосферные явления - указаны явления, наблюдавшиеся в указанный момент времени.
Облачность - указаны через наклонную черту верхняя и нижняя облачность в баллах и высота нижней границы облаков в метрах. Внимание: облачность, как и прочие метеорологические величины в США измеряются автоматическими метеостанциями. Указанные значения в баллах носят условный характер и показывают процент времени, в течение которого, в среднем, лазерный луч высотомера отражался от облаков обратно.
T - Температура воздуха - температура, измеренная на высоте 2 м над землей.
Td - Температура точки росы - температура, при понижении до которой содержащийся в воздухе водяной пар достигнет насыщения.
f - Относительная влажность воздуха - влажноcть воздуха, измеренная на высоте 2 м над землей.
Te - Эффективная температура - температура, которую ощущает одетый по сезону человек в тени. Характеристика душности погоды. При расчете учитывается влияние влажности воздуха и скорости ветра на теплоощущения человека.
Tes - Эффективная температура на солнце - температура, которую ощущает человек, с поправкой на солнечный нагрев. Характеристика знойности погоды. Зависит от высоты солнца над горизонтом, облачности и скорости ветра. Ночью, в пасмурную погоду, а также при ветре 12 м/с и более поправка равна нулю.
P - Атмосферное давление - приведенное к уровню моря атмосферное давление.
Po - Атмосферное давление - измеренное на уровне метеостанции атмосферное давление.
Tmin - Минимальная температура - минимум температуры воздуха на высоте 2 м над землей.
Tmax - Максимальная температура - максимум температуры воздуха на высоте 2 м над землей.
R - Количество осадков - Количество выпавших осадков за 3 или 6 часов, мм.
SD - Снежный покров - Высота снежного покрова, см.